Home   Weather   Tarlac City   Past weeks

Flag for Philippines Past Weather in Tarlac City, Philippines — Yesterday and Last 2 Weeks

Now
79 °F

Mostly cloudy.


Feels Like: 82 °F
Forecast: 76 / 88 °F
Wind: 2 mph from Southeast

Location: Clarkfield Pampanga International Airport

Current Time: Sep 26, 2016 at 1:30:49 AM

Latest Report: Sep 26, 2016 at 1:00 AM


Visibility: 5 mi

Pressure: 29.71 "Hg

Humidity: 89%

Dew Point: 75 °F

Location of Tarlac CityLocation

Past Weather in Tarlac City — Graph

°F

Tarlac City Temperature Yesterday

Maximum temperature yesterday: 93 °F (at 3:00 PM)
Minimum temperature yesterday: 77 °F (at 5:00 AM)
Average temperature yesterday: 83 °F

High & Low Weather Summary for the Past Weeks

 TemperatureHumidityPressure
High93 °F (Sep 24, 4:00 PM)100% (Sep 12, 5:00 AM)29.92 "Hg (Sep 12, 5:00 AM)
Low73 °F (Sep 12, 11:00 PM)59% (Sep 24, 4:00 PM)29.62 "Hg (Sep 25, 3:00 PM)
Average81 °F85%29.79 "Hg
* Reported Sep 11 12:00 AM — Sep 26 12:00 AM, Tarlac City, Weather by CustomWeather, © 2016

Note: Actual official high and low records may vary slightly from our data, if they occured in-between our weather recording intervals... More about our weather records

Advertising

Tarlac City Weather History for the Previous 24 Hours

Scroll right to see more
 ConditionsComfort  
Time TempWeatherWind HumidityBarometerVisibility
12:00 AM
Mon, Sep 26
79 °FMostly cloudy.2 mph94%29.74 "Hg5 mi
11:00 PM
Sun, Sep 25
77 °FThunderstorms. Mostly cloudy.3 mph94%29.77 "Hg5 mi
10:00 PM77 °FThunderstorms. Mostly cloudy.3 mph100%29.77 "Hg4 mi
9:00 PM79 °FThunderstorms. Mostly cloudy.8 mph94%29.74 "Hg5 mi
7:00 PM84 °FThunderstorms. Mostly cloudy.5 mph74%29.68 "Hg6 mi
6:00 PM88 °FPartly cloudy.8 mph75%29.65 "Hg6 mi
5:00 PM88 °FBroken clouds.1 mph75%29.65 "Hg6 mi
4:00 PM93 °FBroken clouds.5 mph59%29.62 "HgN/A
3:00 PM93 °FPartly sunny.5 mph59%29.62 "HgN/A
2:00 PM91 °FPartly sunny.5 mph63%29.65 "HgN/A
1:00 PM91 °FPartly sunny.2 mph63%29.68 "HgN/A
12:00 PM90 °FBroken clouds.3 mph71%29.74 "HgN/A
11:00 AM88 °FBroken clouds.3 mph75%29.74 "HgN/A
10:00 AM88 °FBroken clouds.3 mph75%29.74 "HgN/A
9:00 AM86 °FPartly sunny.2 mph79%29.74 "HgN/A
8:00 AM79 °FPartly sunny.2 mph94%29.74 "HgN/A
7:00 AM79 °FPartly sunny.2 mph94%29.74 "HgN/A
6:00 AM77 °FPartly sunny.2 mph94%29.71 "HgN/A
5:00 AM77 °FPassing clouds.2 mph100%29.71 "HgN/A
4:00 AM79 °FPassing clouds.3 mph94%29.68 "HgN/A
3:00 AM79 °FPassing clouds.3 mph94%29.71 "HgN/A
2:00 AM79 °FPassing clouds.5 mph94%29.71 "HgN/A
1:00 AM79 °FPartly cloudy.5 mph94%29.71 "Hg6 mi
Weather by CustomWeather, © 2016

See weather overviewHow to use our weather pages